Palm Springs, CA

2:56 AM PDT on May 26, 2017 (GMT -0700)
Palm Springs International

Weather History for KPSP - March, 2012

Change the Weather History Date:

Thursday, March 8, 2012

  Actual Average Record
Temperature  
Mean Temperature 65 °F 64 °F  
Max Temperature 78 °F 77 °F 91 °F (2004)
Min Temperature 51 °F 52 °F 33 °F (1942)
Degree Days  
Heating Degree Days 0 3  
Month to date heating degree days 22 24  
Since 1 July heating degree days 712 802  
Cooling Degree Days 0 2  
Month to date cooling degree days 6 14  
Year to date cooling degree days 53 41  
Growing Degree Days 15 (Base 50)    
Moisture  
Dew Point 11 °F    
Average Humidity 14    
Maximum Humidity 20    
Minimum Humidity 8    
Precipitation  
Precipitation 0.00 in 0.04 in 0.61 in (1968)
Month to date precipitation T 0.36  
Year to date precipitation 0.41 2.39  
Since 1 July precipitation 1.89  
Snow  
Snow 0.00 in - - ()
Month to date snowfall 0.0  
Year to date snowfall 0.0  
Snow Depth 0.00 in    
Sea Level Pressure  
Sea Level Pressure 30.24 in    
Wind  
Wind Speed 3 mph (WSW)    
Max Wind Speed 12 mph    
Max Gust Speed 15 mph    
Visibility 10 miles    
Events      
T = Trace of Precipitation, MM = Missing Value Source: NWS Daily Summary

Daily Weather History Graph

Daily Weather History Graph

Search for Another Location

Airport or City:

Trip Planner

Search our weather history database for the weather conditions in past years. The results will help you decide how hot, cold, wet, or windy it might be!

Date:

Astronomy

Mar. 08, 2012 Rise Set
Actual Time 6:04 AM PST 5:48 PM PST
Civil Twilight 5:40 AM PST 6:13 PM PST
Nautical Twilight 5:11 AM PST 6:42 PM PST
Astronomical Twilight 4:42 AM PST 7:11 PM PST
Moon 6:36 PM PST (3/8) 5:55 AM PST (3/8)
Length of Visible Light 12h 33m
Length of Day
11h 43m
Full, 100% of the Moon is Illuminated
Mar 8
Full
Mar 14
Last Quarter
Mar 22
New
Mar 30
First Quarter
Apr 6
Full

Hourly Weather History & Observations

Time (PST) Temp. Dew Point Humidity Pressure Visibility Wind Dir Wind Speed Gust Speed Precip Events Conditions
12:53 AM 55.0 °F 12.9 °F 19% 30.14 in 10.0 mi WSW 4.6 mph - N/A   Clear
1:53 AM 61.0 °F 9.0 °F 13% 30.14 in 10.0 mi WSW 3.5 mph - N/A   Clear
2:53 AM 55.0 °F 10.9 °F 17% 30.16 in 10.0 mi South 4.6 mph - N/A   Clear
3:53 AM 53.1 °F 14.0 °F 21% 30.19 in 10.0 mi Calm Calm - N/A   Clear
4:53 AM 55.9 °F 10.0 °F 16% 30.22 in 10.0 mi North 4.6 mph - N/A   Clear
5:53 AM 57.9 °F 10.9 °F 16% 30.23 in 10.0 mi West 3.5 mph - N/A   Clear
6:53 AM 55.0 °F 14.0 °F 20% 30.27 in 10.0 mi Calm Calm - N/A   Clear
7:53 AM 61.0 °F 16.0 °F 17% 30.30 in 10.0 mi Calm Calm - N/A   Clear
8:53 AM 68.0 °F 10.0 °F 11% 30.29 in 10.0 mi NNE 8.1 mph - N/A   Clear
9:53 AM 69.1 °F 10.0 °F 10% 30.30 in 10.0 mi South 3.5 mph - N/A   Clear
10:53 AM 70.0 °F 10.0 °F 10% 30.29 in 10.0 mi Calm Calm - N/A   Clear
11:53 AM 72.0 °F 10.9 °F 10% 30.26 in 10.0 mi Calm Calm - N/A   Clear
12:53 PM 73.9 °F 10.9 °F 9% 30.23 in 10.0 mi SSW 6.9 mph - N/A   Clear
1:53 PM 75.9 °F 10.9 °F 8% 30.21 in 10.0 mi WSW 5.8 mph - N/A   Clear
2:53 PM 75.9 °F 10.9 °F 8% 30.20 in 10.0 mi Calm Calm - N/A   Clear
3:53 PM 77.0 °F 10.9 °F 8% 30.19 in 10.0 mi West 4.6 mph - N/A   Clear
4:53 PM 75.9 °F 10.9 °F 8% 30.20 in 10.0 mi SSW 3.5 mph - N/A   Scattered Clouds
5:53 PM 73.9 °F 9.0 °F 8% 30.22 in 10.0 mi North 5.8 mph - N/A   Scattered Clouds
6:53 PM 72.0 °F 5.0 °F 7% 30.24 in 10.0 mi NNW 4.6 mph - N/A   Clear
7:53 PM 70.0 °F 8.1 °F 9% 30.26 in 10.0 mi WNW 3.5 mph - N/A   Clear
8:53 PM 64.9 °F 12.0 °F 13% 30.28 in 10.0 mi WSW 4.6 mph - N/A   Clear
9:53 PM 63.0 °F 14.0 °F 15% 30.28 in 10.0 mi SW 6.9 mph - N/A   Clear
10:53 PM 61.0 °F 12.0 °F 15% 30.28 in 10.0 mi West 5.8 mph - N/A   Clear
11:53 PM 60.1 °F 10.9 °F 14% 30.27 in 10.0 mi West 6.9 mph - N/A   Clear